Home > Weather > Helsinki > Past weeks

Flag for Finland Weather for the Past 2 Weeks in Helsinki, Finland

Now
34 °F

Drizzle. Mostly cloudy.


Feels Like: 26 °F
Forecast: 28 / 32 °F
Wind: 10 mph from East

Location: Helsinki Malmi Airport

Current Time: Feb 14, 2016 at 4:07:16 AM

Latest Report: Feb 14, 2016 at 3:20 AM


Visibility: N/A

Pressure: 29.62 "Hg

Humidity: 93%

Dew point: 32 °F

Location of HelsinkiLocation

Historic Weather in Helsinki — Graph

°F

Helsinki Temperature Yesterday

Maximum temperature yesterday: 34 °F (at 12:20 AM)
Minimum temperature yesterday: 32 °F (at 8:20 AM)
Average temperature yesterday: 34 °F

High & Low Weather Summary for the Past Weeks

 TemperatureHumidityPressure
High41 °F (Jan 30, 2:20 AM)100% (Jan 30, 8:20 PM)29.74 "Hg (Jan 30, 8:20 PM)
Low25 °F (Feb 3, 7:20 PM)65% (Feb 13, 3:50 PM)28.71 "Hg (Feb 2, 7:20 AM)
Average34 °F89%29.25 "Hg
* Reported Jan 30 2:20 AM — Feb 14 2:50 AM, Helsinki, Weather by CustomWeather, © 2016

Note: Actual official high and low records may vary slightly from our data, if they occured in-between our weather recording intervals... More about our weather records

Advertising

Helsinki Weather History for the Previous 24 Hours

 ConditionsComfort  
Time TempWeatherWind HumidityBarometerVisibility
2:50 AM
Sun, Feb 14
34 °FLight rain. Low clouds.9 mph93%29.62 "Hg2 mi
2:20 AM34 °FLight rain. Low clouds.9 mph93%29.62 "Hg2 mi
1:50 AM34 °FLight rain. Overcast.13 mph93%29.65 "HgN/A
1:20 AM34 °FOvercast.12 mph93%29.65 "HgN/A
12:50 AM34 °FMostly cloudy.12 mph100%29.65 "HgN/A
12:20 AM34 °FPartly cloudy.12 mph100%29.65 "HgN/A
11:50 PM
Sat, Feb 13
34 °FPassing clouds.10 mph93%29.65 "HgN/A
11:20 PM34 °FPartly cloudy.9 mph100%29.65 "HgN/A
10:50 PM34 °FLow clouds.10 mph100%29.65 "Hg5 mi
10:20 PM34 °FSleet. Low clouds.9 mph93%29.68 "Hg5 mi
9:50 PM32 °FRain. Low clouds.8 mph100%29.68 "Hg1 mi
9:20 PM32 °FLight rain. Low clouds.9 mph100%29.68 "Hg2 mi
8:50 PM34 °FLight rain. Low clouds.8 mph93%29.68 "Hg4 mi
8:20 PM34 °FLight rain. Low clouds.8 mph93%29.71 "Hg3 mi
7:50 PM34 °FLight rain. Low clouds.7 mph93%29.71 "Hg5 mi
7:20 PM34 °FLight rain. Overcast.6 mph87%29.71 "HgN/A
6:50 PM32 °FLight rain. Mostly cloudy.6 mph87%29.71 "HgN/A
6:20 PM32 °FLight snow. Overcast.3 mph87%29.71 "HgN/A
5:50 PM32 °FOvercast.5 mph87%29.74 "HgN/A
5:20 PM34 °FOvercast.6 mph75%29.74 "HgN/A
4:50 PM34 °FPartly sunny.5 mph70%29.71 "HgN/A
4:20 PM34 °FScattered clouds.6 mph65%29.71 "HgN/A
3:50 PM34 °FPassing clouds.6 mph65%29.71 "HgN/A
3:20 PM34 °FPassing clouds.9 mph70%29.71 "HgN/A
2:50 PM34 °FPassing clouds.9 mph70%29.71 "HgN/A
2:20 PM34 °FScattered clouds.12 mph70%29.71 "HgN/A
1:50 PM34 °FScattered clouds.10 mph75%29.68 "HgN/A
1:20 PM34 °FPartly sunny.13 mph75%29.68 "HgN/A
12:50 PM34 °FPartly sunny.13 mph75%29.68 "HgN/A
12:20 PM34 °FPartly sunny.13 mph81%29.65 "HgN/A
11:50 AM34 °FPartly sunny.15 mph81%29.65 "HgN/A
11:20 AM34 °FPartly sunny.21 mph81%29.62 "HgN/A
10:50 AM34 °FScattered clouds.18 mph75%29.62 "HgN/A
10:20 AM34 °FBroken clouds.15 mph81%29.59 "HgN/A
9:50 AM34 °FLow clouds.12 mph93%29.59 "HgN/A
9:20 AM34 °FLight freezing rain. Low clouds.9 mph93%29.59 "Hg4 mi
8:50 AM32 °FSprinkles. Low clouds.6 mph93%29.59 "Hg2 mi
8:20 AM32 °FSprinkles. Mostly cloudy.9 mph93%29.59 "HgN/A
7:50 AM34 °FSprinkles. Passing clouds.9 mph87%29.56 "HgN/A
7:20 AM34 °FSprinkles. Passing clouds.12 mph93%29.56 "Hg4 mi
6:50 AM34 °FSprinkles. Low clouds.13 mph93%29.56 "HgN/A
6:20 AM34 °FLight rain. Low clouds.10 mph93%29.53 "Hg1 mi
5:50 AM34 °FLight rain. Low clouds.9 mph93%29.53 "Hg4 mi
5:20 AM34 °FLight rain. Low clouds.8 mph93%29.53 "HgN/A
4:20 AM34 °FLow clouds.7 mph87%29.53 "HgN/A
Weather by CustomWeather, © 2016

See weather overviewHow to use our weather pages